This demonstration page uses our WeatherBlox Daily Observations layout. Learn more.

Left ArrowRight Arrow

Hourly Observations for May 1, 2015

Temp ( °F °C ) Dew Point ( °F °C ) Humidity (%) Winds ( mph kmh ) Pressure ( in mb ) Visibility ( mi km ) Precip ( " mm )
12:53 am 00:53 Cloudy 48 8.9 41 5 77 77 NW 6 9 30.02 1017 10 16 0.00 0.00
1:53 am 01:53 Cloudy 49 9.4 42 5.6 77 77 NW 6 9 30.01 1016 10 16 0.00 0.00
2:53 am 02:53 Cloudy 50 10 43 6.1 77 77 NW 8 13 30.00 1016 10 16 0.00 0.00
3:53 am 03:53 Cloudy 49 9.4 43 6.1 80 80 NW 5 7 30.01 1016 10 16 0.00 0.00
4:53 am 04:53 Mostly Cloudy 48 8.9 41 5 77 77 NNW 7 11 30.03 1017 10 16 0.00 0.00
5:53 am 05:53 Mostly Cloudy 47 8.3 39 3.9 74 74 NW 6 9 30.02 1017 10 16 0.00 0.00
6:53 am 06:53 Mostly Cloudy 47 8.3 39 3.9 74 74 NW 3 6 30.04 1017 10 16 0.00 0.00
7:53 am 07:53 Sunny 49 9.4 40 4.4 71 71 NW 3 6 30.06 1018 10 16 0.00 0.00
8:53 am 08:53 Sunny 52 11.1 42 5.6 69 69 N 8 13 30.09 1019 10 16 0.00 0.00
9:53 am 09:53 Sunny 57 13.9 45 7.2 64 64 NNW 10 17 30.09 1019 10 16 0.00 0.00
10:53 am 10:53 Sunny 61 16.1 45 7.2 56 56 NNW 7 11 30.09 1019 10 16 0.00 0.00
11:53 am 11:53 Sunny 64 17.8 46 7.8 52 52 NE 6 9 30.09 1019 10 16 0.00 0.00
12:53 pm 12:53 Sunny 67 19.4 47 8.3 49 49 VRB 7 11 30.09 1019 10 16 0.00 0.00
1:53 pm 13:53 Mostly Sunny 70 21.1 45 7.2 41 41 VRB 3 6 30.07 1018 10 16 0.00 0.00
2:53 pm 14:53 Mostly Cloudy 71 21.7 44 6.7 38 38 NNE 10 17 30.06 1018 10 16 0.00 0.00
3:53 pm 15:53 Mostly Cloudy 71 21.7 44 6.7 38 38 NE 9 15 30.05 1018 10 16 0.00 0.00
4:53 pm 16:53 Sunny 70 21.1 44 6.7 39 39 NNW 6 9 30.04 1017 10 16 0.00 0.00
5:53 pm 17:53 Mostly Sunny 72 22.2 42 5.6 34 34 NNE 9 15 30.04 1017 10 16 0.00 0.00
6:53 pm 18:53 Mostly Cloudy 73 22.8 43 6.1 34 34 NNE 9 15 30.04 1017 10 16 0.00 0.00
7:53 pm 19:53 Sunny 68 20 42 5.6 39 39 NNW 5 7 30.04 1017 10 16 0.00 0.00
8:53 pm 20:53 Clear 57 13.9 47 8.3 69 69 NNW 5 7 30.06 1018 10 16 0.00 0.00
9:53 pm 21:53 Clear 53 11.7 46 7.8 77 77 Calm 30.07 1018 10 16 0.00 0.00
10:53 pm 22:53 Clear 51 10.6 45 7.2 80 80 Calm 30.08 1019 10 16 0.00 0.00
11:53 pm 23:53 Clear 48 8.9 45 7.2 89 89 Calm 30.08 1019 10 16 0.00 0.00

Powered by AerisWeather